TimeCDT,TemperatureF,Dew PointF,Humidity,Sea Level PressureIn,VisibilityMPH,Wind Direction,Wind SpeedMPH,Gust SpeedMPH,PrecipitationIn,Events,Conditions,WindDirDegrees,DateUTC
12:15 AM,68.0,60.8,78,30.21,10.0,SSE,5.8,-,N/A,,Clear,160,2013-07-15 05:15:00
12:35 AM,68.0,60.8,78,30.22,10.0,SSE,5.8,-,N/A,,Clear,160,2013-07-15 05:35:00
12:55 AM,66.2,60.8,83,30.21,10.0,SSE,6.9,-,N/A,,Clear,160,2013-07-15 05:55:00
1:15 AM,66.2,60.8,83,30.21,10.0,SSE,6.9,-,N/A,,Clear,160,2013-07-15 06:15:00
1:35 AM,66.2,60.8,83,30.21,10.0,SSE,5.8,-,N/A,,Clear,160,2013-07-15 06:35:00
1:55 AM,66.2,60.8,83,30.21,10.0,South,5.8,-,N/A,,Clear,180,2013-07-15 06:55:00
2:15 AM,66.2,60.8,83,30.21,10.0,South,5.8,-,N/A,,Clear,180,2013-07-15 07:15:00
2:35 AM,64.4,60.8,88,30.21,10.0,South,5.8,-,N/A,,Clear,170,2013-07-15 07:35:00
2:55 AM,64.4,60.8,88,30.21,10.0,South,5.8,-,N/A,,Clear,170,2013-07-15 07:55:00
3:15 AM,64.4,60.8,88,30.21,10.0,South,5.8,-,N/A,,Clear,170,2013-07-15 08:15:00
3:35 AM,64.4,60.8,88,30.21,10.0,South,5.8,-,N/A,,Clear,170,2013-07-15 08:35:00
3:55 AM,64.4,60.8,88,30.21,10.0,South,5.8,-,N/A,,Clear,180,2013-07-15 08:55:00
4:15 AM,64.4,60.8,88,30.21,10.0,South,5.8,-,N/A,,Clear,180,2013-07-15 09:15:00
4:35 AM,62.6,59.0,88,30.22,10.0,South,5.8,-,N/A,,Clear,180,2013-07-15 09:35:00
4:55 AM,62.6,59.0,88,30.22,10.0,South,4.6,-,N/A,,Clear,180,2013-07-15 09:55:00
5:15 AM,62.6,59.0,88,30.22,10.0,South,4.6,-,N/A,,Clear,190,2013-07-15 10:15:00
5:35 AM,62.6,57.2,82,30.22,10.0,South,3.5,-,N/A,,Clear,180,2013-07-15 10:35:00
5:55 AM,62.6,59.0,88,30.23,9.0,South,5.8,-,N/A,,Clear,170,2013-07-15 10:55:00
6:15 AM,62.6,57.2,82,30.23,8.0,South,4.6,-,N/A,,Clear,170,2013-07-15 11:15:00
6:35 AM,62.6,59.0,88,30.24,8.0,South,4.6,-,N/A,,Clear,170,2013-07-15 11:35:00
6:55 AM,64.4,60.8,88,30.24,8.0,South,3.5,-,N/A,,Clear,180,2013-07-15 11:55:00
7:15 AM,66.2,60.8,83,30.25,9.0,South,3.5,-,N/A,,Clear,170,2013-07-15 12:15:00
7:35 AM,68.0,62.6,83,30.25,10.0,SSE,4.6,-,N/A,,Clear,160,2013-07-15 12:35:00
7:55 AM,69.8,62.6,78,30.25,10.0,South,5.8,-,N/A,,Clear,180,2013-07-15 12:55:00
8:15 AM,71.6,62.6,73,30.25,10.0,South,5.8,-,N/A,,Clear,170,2013-07-15 13:15:00
8:35 AM,73.4,62.6,69,30.25,10.0,South,6.9,-,N/A,,Clear,190,2013-07-15 13:35:00
8:55 AM,75.2,62.6,65,30.26,10.0,South,5.8,-,N/A,,Clear,190,2013-07-15 13:55:00
9:15 AM,75.2,64.4,69,30.26,10.0,SSW,5.8,-,N/A,,Clear,210,2013-07-15 14:15:00
9:35 AM,78.8,64.4,61,30.26,10.0,South,5.8,-,N/A,,Clear,180,2013-07-15 14:35:00
9:55 AM,80.6,64.4,58,30.26,10.0,South,6.9,-,N/A,,Clear,190,2013-07-15 14:55:00
10:15 AM,80.6,62.6,54,30.26,10.0,South,4.6,-,N/A,,Clear,190,2013-07-15 15:15:00
10:35 AM,80.6,62.6,54,30.26,10.0,South,6.9,-,N/A,,Clear,180,2013-07-15 15:35:00
10:55 AM,80.6,62.6,54,30.26,10.0,SSW,5.8,-,N/A,,Clear,200,2013-07-15 15:55:00
11:15 AM,82.4,62.6,51,30.25,10.0,SSE,8.1,-,N/A,,Clear,160,2013-07-15 16:15:00
11:35 AM,82.4,62.6,51,30.25,10.0,South,6.9,-,N/A,,Clear,180,2013-07-15 16:35:00
11:55 AM,82.4,62.6,51,30.25,10.0,SSE,9.2,-,N/A,,Partly Cloudy,150,2013-07-15 16:55:00
12:15 PM,84.2,62.6,48,30.25,10.0,SSW,5.8,-,N/A,,Scattered Clouds,200,2013-07-15 17:15:00
12:35 PM,82.4,60.8,48,30.25,10.0,SSW,8.1,-,N/A,,Scattered Clouds,200,2013-07-15 17:35:00
12:55 PM,84.2,60.8,45,30.25,10.0,SSE,6.9,-,N/A,,Scattered Clouds,160,2013-07-15 17:55:00
1:15 PM,84.2,60.8,45,30.24,10.0,South,8.1,-,N/A,,Partly Cloudy,170,2013-07-15 18:15:00
1:35 PM,84.2,60.8,45,30.24,10.0,South,10.4,-,N/A,,Scattered Clouds,180,2013-07-15 18:35:00
1:55 PM,84.2,60.8,45,30.24,10.0,SSE,9.2,-,N/A,,Scattered Clouds,160,2013-07-15 18:55:00
2:15 PM,84.2,60.8,45,30.23,10.0,SSE,9.2,-,N/A,,Scattered Clouds,160,2013-07-15 19:15:00
2:35 PM,86.0,62.6,45,30.22,10.0,South,11.5,-,N/A,,Mostly Cloudy,190,2013-07-15 19:35:00
2:55 PM,86.0,60.8,43,30.22,10.0,SSE,10.4,-,N/A,,Mostly Cloudy,150,2013-07-15 19:55:00
3:15 PM,86.0,60.8,43,30.22,10.0,South,6.9,-,N/A,,Mostly Cloudy,190,2013-07-15 20:15:00
3:35 PM,87.8,62.6,43,30.21,10.0,South,10.4,-,N/A,,Mostly Cloudy,180,2013-07-15 20:35:00
3:55 PM,86.0,62.6,45,30.21,10.0,SSE,13.8,-,N/A,,Mostly Cloudy,160,2013-07-15 20:55:00
4:15 PM,86.0,62.6,45,30.21,10.0,SSE,9.2,-,N/A,,Mostly Cloudy,160,2013-07-15 21:15:00
4:35 PM,86.0,62.6,45,30.20,10.0,SSE,10.4,-,N/A,,Mostly Cloudy,160,2013-07-15 21:35:00
4:55 PM,84.2,64.4,51,30.20,10.0,SE,8.1,-,N/A,,Scattered Clouds,130,2013-07-15 21:55:00
5:15 PM,82.4,66.2,58,30.20,10.0,SE,10.4,-,N/A,,Scattered Clouds,130,2013-07-15 22:15:00
5:35 PM,84.2,66.2,55,30.20,10.0,SE,9.2,-,N/A,,Scattered Clouds,130,2013-07-15 22:35:00
5:55 PM,84.2,66.2,55,30.19,9.0,ESE,8.1,-,N/A,,Clear,110,2013-07-15 22:55:00
6:15 PM,84.2,68.0,58,30.18,10.0,ESE,9.2,-,N/A,,Scattered Clouds,120,2013-07-15 23:15:00
6:35 PM,82.4,68.0,62,30.18,10.0,ESE,9.2,-,N/A,,Partly Cloudy,110,2013-07-15 23:35:00
6:55 PM,82.4,66.2,58,30.18,9.0,East,6.9,-,N/A,,Clear,100,2013-07-15 23:55:00
7:15 PM,82.4,69.8,66,30.17,10.0,East,6.9,-,N/A,,Scattered Clouds,90,2013-07-16 00:15:00
7:35 PM,82.4,69.8,66,30.17,9.0,East,6.9,-,N/A,,Overcast,90,2013-07-16 00:35:00
7:55 PM,80.6,69.8,70,30.17,10.0,ESE,4.6,-,N/A,,Mostly Cloudy,110,2013-07-16 00:55:00
8:15 PM,80.6,69.8,70,30.17,10.0,ESE,4.6,-,N/A,,Clear,110,2013-07-16 01:15:00
8:35 PM,78.8,69.8,74,30.17,10.0,ESE,5.8,-,N/A,,Partly Cloudy,120,2013-07-16 01:35:00
8:55 PM,78.8,69.8,74,30.17,10.0,SE,6.9,-,N/A,,Scattered Clouds,130,2013-07-16 01:55:00
9:15 PM,77.0,69.8,78,30.17,10.0,ESE,6.9,-,N/A,,Scattered Clouds,120,2013-07-16 02:15:00
9:35 PM,75.2,69.8,83,30.18,10.0,ESE,8.1,-,N/A,,Partly Cloudy,120,2013-07-16 02:35:00
9:55 PM,75.2,68.0,78,30.19,10.0,SE,5.8,-,N/A,,Clear,130,2013-07-16 02:55:00
10:15 PM,75.2,68.0,78,30.19,10.0,SE,4.6,-,N/A,,Clear,130,2013-07-16 03:15:00
10:35 PM,75.2,66.2,73,30.19,10.0,SSE,5.8,-,N/A,,Scattered Clouds,160,2013-07-16 03:35:00
10:55 PM,75.2,66.2,73,30.19,10.0,South,6.9,-,N/A,,Partly Cloudy,170,2013-07-16 03:55:00
11:15 PM,73.4,66.2,78,30.19,10.0,SSE,6.9,-,N/A,,Clear,160,2013-07-16 04:15:00
11:35 PM,73.4,66.2,78,30.20,10.0,South,6.9,-,N/A,,Clear,180,2013-07-16 04:35:00
11:55 PM,73.4,66.2,78,30.20,10.0,South,5.8,-,N/A,,Clear,170,2013-07-16 04:55:00